QPF
0.00 0.00 0.00 0.00 0.00 0.00 0.00 0.00 0.00 0.00 0.00 0.00 0.00 0.00 0.00 0.00 0.00 0.00 0.00 0.00 0.00 0.01 0.01 0.01 0.01 0.01 0.02 0.02 0.03 0.04 0.04 0.05 0.05 0.05 0.05 0.05 0.05 0.04
0.00 0.00 0.00 0.00 0.00 0.00 0.00 0.00 0.00 0.00 0.00 0.00 0.00 0.00 0.00 0.00 0.00 0.00 0.00 0.00 0.00 0.01 0.01 0.01 0.02 0.02 0.02 0.03 0.04 0.05 0.06 0.06 0.07 0.07 0.08 0.08 0.08 0.08
0.00 0.00 0.00 0.00 0.00 0.00 0.00 0.00 0.00 0.00 0.00 0.00 0.00 0.00 0.00 0.00 0.00 0.00 0.00 0.00 0.00 0.01 0.01 0.01 0.02 0.03 0.03 0.04 0.05 0.06 0.06 0.07 0.07 0.08 0.08 0.09 0.09 0.09
0.00 0.00 0.00 0.00 0.00 0.00 0.00 0.00 0.00 0.00 0.00 0.01 0.00 0.00 0.00 0.00 0.00 0.00 0.00 0.01 0.00 0.00 0.01 0.01 0.02 0.03 0.03 0.03 0.04 0.04 0.05 0.06 0.06 0.06 0.07 0.07 0.08 0.09
0.00 0.00 0.00 0.00 0.00 0.00 0.00 0.00 0.00 0.00 0.01 0.01 0.00 0.00 0.00 0.00 0.00 0.00 0.00 0.00 0.00 0.00 0.00 0.00 0.01 0.01 0.02 0.03 0.04 0.04 0.04 0.04 0.04 0.05 0.05 0.05 0.05 0.06
0.00 0.00 0.00 0.00 0.00 0.00 0.00 0.00 0.00 0.00 0.00 0.01 0.01 0.01 0.01 0.00 0.00 0.00 0.00 0.00 0.00 0.00 0.00 0.00 0.01 0.01 0.01 0.01 0.02 0.02 0.02 0.02 0.02 0.03 0.03 0.03 0.04 0.04
0.00 0.00 0.00 0.00 0.00 0.00 0.01 0.01 0.01 0.01 0.02 0.03 0.03 0.02 0.01 0.00 0.00 0.00 0.01 0.00 0.00 0.00 0.00 0.00 0.00 0.00 0.00 0.00 0.00 0.00 0.01 0.01 0.02 0.03 0.04 0.04 0.05 0.05
0.00 0.00 0.00 0.00 0.00 0.00 0.00 0.01 0.02 0.03 0.05 0.06 0.05 0.03 0.01 0.00 0.01 0.01 0.02 0.02 0.01 0.00 0.00 0.00 0.00 0.00 0.00 0.00 0.00 0.00 0.01 0.02 0.03 0.04 0.05 0.05 0.06 0.06
0.00 0.00 0.00 0.00 0.00 0.00 0.00 0.01 0.02 0.03 0.04 0.04 0.02 0.01 0.01 0.01 0.03 0.04 0.03 0.03 0.02 0.00 0.00 0.01 0.00 0.00 0.00 0.00 0.00 0.00 0.01 0.02 0.03 0.03 0.04 0.04 0.04 0.05
0.00 0.00 0.00 0.00 0.00 0.00 0.02 0.03 0.02 0.01 0.01 0.01 0.01 0.01 0.01 0.01 0.02 0.04 0.04 0.02 0.01 0.00 0.00 0.00 0.00 0.00 0.00 0.00 0.00 0.00 0.01 0.01 0.02 0.03 0.04 0.04 0.04 0.04
0.00 0.00 0.00 0.00 0.00 0.02 0.04 0.04 0.01 0.00 0.00 0.01 0.01 0.01 0.00 0.00 0.01 0.05 0.05 0.04 0.02 0.00 0.00 0.00 0.00 0.00 0.00 0.00 0.00 0.00 0.00 0.01 0.02 0.03 0.04 0.04 0.05 0.06
0.00 0.00 0.00 0.00 0.02 0.03 0.03 0.01 0.00 0.00 0.01 0.01 0.00 0.00 0.00 0.00 0.00 0.03 0.09 0.10 0.05 0.02 0.00 0.02 0.02 0.03 0.04 0.00 0.00 0.00 0.00 0.00 0.01 0.02 0.02 0.03 0.04 0.06
0.00 0.00 0.00 0.01 0.02 0.02 0.01 0.00 0.01 0.02 0.01 0.00 0.00 0.00 0.00 0.00 0.00 0.00 0.04 0.12 0.14 0.07 0.01 0.07 0.08 0.04 0.05 0.02 0.00 0.00 0.01 0.02 0.03 0.02 0.03 0.04 0.06 0.08
0.00 0.00 0.00 0.01 0.01 0.00 0.00 0.00 0.01 0.01 0.00 0.00 0.00 0.00 0.00 0.00 0.00 0.00 0.01 0.02 0.07 0.10 0.07 0.10 0.12 0.07 0.08 0.05 0.01 0.00 0.01 0.05 0.10 0.10 0.07 0.07 0.07 0.07
0.00 0.01 0.01 0.01 0.00 0.00 0.00 0.00 0.00 0.00 0.00 0.01 0.01 0.00 0.00 0.00 0.00 0.00 0.00 0.00 0.00 0.01 0.03 0.05 0.09 0.09 0.09 0.09 0.06 0.03 0.04 0.04 0.09 0.15 0.15 0.13 0.08 0.05
0.01 0.00 0.00 0.00 0.00 0.00 0.00 0.00 0.00 0.00 0.01 0.01 0.01 0.00 0.00 0.00 0.00 0.01 0.01 0.01 0.01 0.00 0.00 0.01 0.04 0.09 0.09 0.07 0.11 0.11 0.12 0.16 0.17 0.21 0.21 0.16 0.11 0.06
0.01 0.00 0.00 0.00 0.00 0.00 0.00 0.00 0.00 0.00 0.00 0.01 0.01 0.01 0.01 0.00 0.00 0.00 0.01 0.02 0.02 0.01 0.01 0.00 0.01 0.03 0.07 0.08 0.09 0.09 0.12 0.18 0.23 0.23 0.21 0.19 0.12 0.07
0.00 0.00 0.00 0.00 0.00 0.00 0.00 0.00 0.00 0.00 0.01 0.01 0.01 0.01 0.01 0.01 0.01 0.00 0.01 0.02 0.02 0.02 0.02 0.01 0.01 0.01 0.01 0.02 0.07 0.15 0.17 0.19 0.21 0.18 0.14 0.15 0.15 0.10
0.00 0.00 0.00 0.00 0.00 0.00 0.01 0.01 0.00 0.00 0.01 0.01 0.02 0.02 0.02 0.02 0.01 0.01 0.01 0.01 0.01 0.01 0.02 0.02 0.03 0.04 0.04 0.03 0.02 0.12 0.22 0.19 0.16 0.14 0.13 0.14 0.15 0.12
0.00 0.00 0.00 0.00 0.00 0.01 0.01 0.01 0.01 0.01 0.01 0.01 0.01 0.02 0.02 0.02 0.02 0.01 0.02 0.03 0.03 0.02 0.01 0.01 0.03 0.07 0.12 0.13 0.12 0.14 0.16 0.18 0.15 0.15 0.14 0.15 0.14 0.11
0.00 0.00 0.00 0.00 0.01 0.01 0.01 0.01 0.01 0.01 0.02 0.02 0.02 0.02 0.03 0.03 0.02 0.01 0.02 0.02 0.02 0.02 0.02 0.02 0.04 0.08 0.10 0.07 0.08 0.12 0.15 0.18 0.18 0.16 0.11 0.09 0.09 0.09
0.00 0.00 0.00 0.00 0.01 0.01 0.01 0.01 0.01 0.01 0.02 0.02 0.02 0.02 0.03 0.03 0.03 0.02 0.02 0.03 0.03 0.03 0.03 0.03 0.02 0.03 0.03 0.04 0.07 0.11 0.12 0.12 0.11 0.09 0.11 0.10 0.10 0.19
0.01 0.01 0.00 0.01 0.01 0.01 0.01 0.01 0.01 0.01 0.02 0.03 0.03 0.03 0.03 0.03 0.02 0.03 0.03 0.03 0.03 0.02 0.02 0.02 0.02 0.02 0.03 0.04 0.05 0.07 0.07 0.08 0.06 0.08 0.16 0.18 0.19 0.25
MSLP
1020.12 1020.18 1020.17 1020.06 1019.81 1019.38 1018.79 1018.07 1017.24 1016.36 1015.48 1014.65 1013.88 1013.20 1012.59 1012.02 1011.48 1010.92 1010.33 1009.68 1008.99 1008.26 1007.51 1006.76 1006.03 1005.33 1004.67 1004.06 1003.49 1002.96 1002.48 1002.03 1001.61 1001.24 1000.91 1000.61 1000.36 1000.14
1019.76 1019.77 1019.74 1019.62 1019.36 1018.95 1018.39 1017.68 1016.86 1015.98 1015.09 1014.22 1013.41 1012.67 1011.99 1011.35 1010.74 1010.12 1009.48 1008.81 1008.09 1007.35 1006.59 1005.84 1005.10 1004.40 1003.74 1003.12 1002.55 1002.01 1001.51 1001.04 1000.61 1000.21 999.85 999.53 999.24 999.00
1019.34 1019.30 1019.22 1019.07 1018.80 1018.39 1017.84 1017.15 1016.35 1015.48 1014.59 1013.70 1012.86 1012.06 1011.33 1010.63 1009.95 1009.28 1008.59 1007.87 1007.13 1006.37 1005.60 1004.83 1004.09 1003.38 1002.71 1002.09 1001.50 1000.96 1000.45 999.97 999.53 999.11 998.73 998.39 998.09 997.83
1018.90 1018.80 1018.67 1018.47 1018.17 1017.75 1017.20 1016.52 1015.74 1014.88 1013.99 1013.10 1012.23 1011.41 1010.62 1009.87 1009.14 1008.42 1007.68 1006.93 1006.15 1005.36 1004.56 1003.78 1003.02 1002.29 1001.60 1000.96 1000.36 999.80 999.28 998.80 998.36 997.95 997.57 997.23 996.93 996.67
1018.48 1018.31 1018.11 1017.86 1017.52 1017.07 1016.51 1015.83 1015.05 1014.21 1013.32 1012.43 1011.56 1010.71 1009.90 1009.11 1008.34 1007.57 1006.79 1006.00 1005.18 1004.36 1003.53 1002.71 1001.91 1001.15 1000.43 999.75 999.12 998.54 998.01 997.53 997.10 996.70 996.35 996.04 995.76 995.53
1018.07 1017.84 1017.57 1017.26 1016.87 1016.38 1015.79 1015.09 1014.32 1013.49 1012.62 1011.73 1010.86 1010.01 1009.19 1008.38 1007.58 1006.78 1005.96 1005.12 1004.27 1003.40 1002.53 1001.66 1000.81 999.99 999.22 998.49 997.82 997.21 996.65 996.16 995.74 995.36 995.05 994.78 994.55 994.36
1017.66 1017.36 1017.03 1016.65 1016.20 1015.66 1015.04 1014.33 1013.56 1012.73 1011.88 1011.02 1010.17 1009.33 1008.51 1007.69 1006.88 1006.05 1005.21 1004.34 1003.45 1002.53 1001.60 1000.68 999.76 998.87 998.02 997.22 996.48 995.81 995.22 994.70 994.27 993.91 993.63 993.41 993.24 993.11
1017.22 1016.85 1016.45 1016.00 1015.49 1014.91 1014.26 1013.54 1012.77 1011.96 1011.14 1010.31 1009.49 1008.68 1007.87 1007.07 1006.25 1005.42 1004.55 1003.66 1002.73 1001.76 1000.78 999.78 998.79 997.81 996.87 995.97 995.14 994.39 993.73 993.16 992.70 992.33 992.06 991.88 991.76 991.69
1016.72 1016.29 1015.82 1015.31 1014.75 1014.12 1013.45 1012.73 1011.97 1011.19 1010.40 1009.61 1008.83 1008.06 1007.28 1006.50 1005.69 1004.86 1003.98 1003.07 1002.10 1001.10 1000.06 998.99 997.92 996.85 995.80 994.79 993.84 992.98 992.21 991.55 991.02 990.61 990.33 990.15 990.07 990.06
1016.15 1015.66 1015.13 1014.57 1013.96 1013.31 1012.62 1011.90 1011.17 1010.42 1009.68 1008.95 1008.22 1007.48 1006.74 1005.98 1005.19 1004.36 1003.48 1002.55 1001.56 1000.51 999.42 998.30 997.15 995.98 994.82 993.69 992.61 991.60 990.69 989.91 989.26 988.77 988.43 988.24 988.17 988.19
1015.53 1014.99 1014.41 1013.81 1013.17 1012.50 1011.81 1011.11 1010.40 1009.70 1009.01 1008.32 1007.64 1006.95 1006.24 1005.50 1004.72 1003.89 1003.01 1002.06 1001.05 999.98 998.85 997.68 996.46 995.20 993.94 992.67 991.44 990.28 989.21 988.26 987.47 986.86 986.43 986.18 986.09 986.15
1014.91 1014.32 1013.71 1013.08 1012.42 1011.75 1011.07 1010.39 1009.72 1009.05 1008.40 1007.76 1007.12 1006.46 1005.77 1005.04 1004.26 1003.43 1002.53 1001.57 1000.54 999.45 998.30 997.09 995.81 994.49 993.12 991.74 990.36 989.03 987.79 986.67 985.71 984.95 984.40 984.07 983.95 984.02
1014.32 1013.72 1013.09 1012.45 1011.79 1011.12 1010.45 1009.79 1009.15 1008.52 1007.90 1007.29 1006.66 1006.02 1005.33 1004.59 1003.80 1002.95 1002.03 1001.05 1000.01 998.90 997.73 996.49 995.18 993.80 992.36 990.87 989.37 987.89 986.48 985.18 984.05 983.13 982.46 982.04 981.88 981.94
1013.84 1013.23 1012.60 1011.96 1011.30 1010.65 1010.00 1009.36 1008.73 1008.13 1007.53 1006.92 1006.30 1005.64 1004.93 1004.16 1003.34 1002.45 1001.50 1000.49 999.43 998.31 997.13 995.88 994.55 993.13 991.64 990.08 988.48 986.87 985.32 983.87 982.59 981.52 980.72 980.22 980.00 980.06
1013.47 1012.88 1012.27 1011.64 1011.00 1010.36 1009.72 1009.10 1008.49 1007.88 1007.28 1006.67 1006.02 1005.33 1004.58 1003.76 1002.88 1001.95 1000.95 999.91 998.82 997.69 996.50 995.25 993.91 992.49 990.98 989.38 987.71 986.03 984.37 982.81 981.40 980.22 979.31 978.73 978.46 978.49
1013.25 1012.69 1012.10 1011.49 1010.87 1010.24 1009.61 1008.99 1008.38 1007.77 1007.15 1006.51 1005.82 1005.08 1004.27 1003.40 1002.46 1001.46 1000.41 999.33 998.21 997.06 995.87 994.63 993.31 991.90 990.40 988.80 987.12 985.40 983.69 982.06 980.58 979.31 978.32 977.66 977.33 977.33
1013.13 1012.61 1012.05 1011.47 1010.86 1010.24 1009.62 1008.99 1008.37 1007.74 1007.09 1006.41 1005.68 1004.88 1004.01 1003.07 1002.06 1001.00 999.90 998.78 997.64 996.48 995.29 994.07 992.78 991.42 989.96 988.39 986.74 985.04 983.33 981.68 980.17 978.86 977.81 977.09 976.70 976.64
1013.09 1012.60 1012.07 1011.51 1010.91 1010.29 1009.66 1009.02 1008.38 1007.73 1007.04 1006.32 1005.54 1004.69 1003.77 1002.77 1001.71 1000.59 999.45 998.30 997.14 995.98 994.82 993.63 992.39 991.09 989.70 988.22 986.64 985.00 983.34 981.73 980.23 978.90 977.82 977.04 976.58 976.43
1013.08 1012.61 1012.10 1011.53 1010.93 1010.31 1009.66 1009.01 1008.34 1007.65 1006.94 1006.18 1005.36 1004.46 1003.50 1002.46 1001.36 1000.22 999.06 997.89 996.74 995.60 994.48 993.34 992.18 990.97 989.68 988.30 986.84 985.30 983.74 982.20 980.74 979.43 978.33 977.50 976.95 976.69
1013.05 1012.58 1012.06 1011.49 1010.87 1010.22 1009.55 1008.87 1008.17 1007.45 1006.71 1005.91 1005.07 1004.15 1003.16 1002.11 1001.01 999.87 998.71 997.57 996.44 995.35 994.29 993.23 992.17 991.07 989.90 988.66 987.33 985.93 984.49 983.05 981.67 980.40 979.30 978.42 977.78 977.39
1012.97 1012.49 1011.94 1011.34 1010.69 1010.00 1009.29 1008.57 1007.84 1007.08 1006.31 1005.49 1004.63 1003.71 1002.73 1001.69 1000.60 999.50 998.39 997.29 996.23 995.22 994.24 993.29 992.34 991.37 990.35 989.26 988.09 986.85 985.55 984.24 982.95 981.74 980.65 979.74 979.01 978.50
1012.83 1012.30 1011.71 1011.06 1010.36 1009.63 1008.87 1008.10 1007.32 1006.53 1005.73 1004.90 1004.03 1003.12 1002.16 1001.16 1000.13 999.09 998.05 997.04 996.08 995.17 994.30 993.47 992.65 991.83 990.97 990.04 989.04 987.97 986.83 985.65 984.48 983.34 982.29 981.35 980.57 979.94
1012.61 1012.03 1011.37 1010.66 1009.90 1009.10 1008.29 1007.46 1006.64 1005.81 1004.98 1004.14 1003.28 1002.39 1001.47 1000.53 999.58 998.63 997.70 996.80 995.95 995.16 994.43 993.73 993.06 992.39 991.68 990.92 990.09 989.19 988.21 987.18 986.13 985.09 984.09 983.17 982.36 981.67
Thickness
5474 5467 5459 5452 5445 5437 5430 5421 5417 5430 5449 5442 5428 5418 5402 5389 5377 5367 5358 5350 5346 5342 5339 5335 5332 5330 5328 5329 5330 5333 5336 5340 5345 5351 5358 5365 5374 5383
5461 5454 5446 5439 5432 5424 5415 5406 5396 5393 5406 5417 5406 5396 5380 5362 5345 5331 5319 5312 5307 5304 5302 5301 5300 5300 5301 5303 5305 5308 5312 5316 5321 5327 5333 5340 5347 5355
5448 5441 5434 5427 5419 5410 5401 5391 5381 5369 5371 5387 5379 5366 5351 5335 5321 5305 5292 5283 5280 5278 5278 5278 5278 5280 5282 5285 5288 5290 5294 5298 5302 5307 5313 5319 5325 5333
5436 5429 5421 5414 5405 5396 5386 5376 5364 5351 5339 5343 5349 5336 5321 5306 5296 5287 5278 5270 5264 5263 5263 5265 5267 5269 5271 5273 5275 5278 5281 5284 5288 5292 5297 5303 5309 5314
5423 5415 5407 5399 5390 5381 5370 5359 5347 5334 5318 5307 5308 5303 5297 5286 5278 5273 5267 5261 5256 5254 5255 5256 5259 5261 5263 5265 5268 5270 5273 5276 5279 5282 5285 5289 5294 5300
5409 5400 5392 5383 5373 5364 5354 5341 5327 5314 5300 5288 5284 5281 5276 5271 5264 5262 5263 5258 5255 5251 5251 5253 5254 5256 5257 5259 5261 5263 5266 5268 5271 5274 5277 5280 5284 5288
5396 5387 5377 5368 5358 5346 5334 5321 5306 5293 5283 5276 5272 5269 5265 5260 5256 5255 5256 5258 5257 5250 5253 5254 5252 5253 5254 5254 5256 5258 5261 5264 5267 5270 5272 5275 5278 5281
5383 5374 5363 5352 5340 5329 5314 5300 5286 5275 5268 5264 5262 5257 5256 5253 5252 5252 5251 5254 5260 5256 5252 5256 5252 5254 5255 5255 5257 5259 5262 5264 5267 5269 5272 5274 5276 5278
5368 5359 5349 5335 5322 5309 5299 5289 5277 5265 5258 5254 5253 5251 5251 5250 5250 5251 5251 5250 5251 5251 5249 5258 5256 5256 5258 5259 5261 5264 5266 5268 5270 5272 5274 5275 5277 5278
5353 5341 5330 5318 5304 5294 5288 5279 5268 5259 5254 5251 5249 5250 5249 5249 5248 5248 5248 5251 5253 5249 5246 5252 5258 5259 5263 5264 5266 5269 5272 5274 5276 5278 5279 5280 5281 5281
5338 5324 5310 5301 5291 5282 5275 5268 5262 5257 5254 5251 5250 5249 5249 5248 5246 5246 5247 5247 5252 5255 5249 5249 5257 5261 5266 5271 5275 5276 5279 5281 5283 5284 5285 5285 5284 5283
5325 5308 5293 5283 5276 5270 5265 5260 5257 5256 5255 5253 5251 5249 5248 5247 5246 5242 5239 5241 5245 5252 5255 5251 5254 5255 5271 5282 5282 5282 5284 5287 5288 5289 5289 5288 5286 5283
5308 5294 5281 5272 5267 5262 5258 5253 5252 5254 5253 5250 5250 5250 5250 5249 5247 5243 5239 5237 5241 5247 5252 5250 5254 5255 5257 5275 5290 5293 5293 5293 5293 5294 5293 5292 5289 5285
5292 5280 5271 5266 5261 5256 5252 5251 5252 5251 5247 5246 5248 5249 5248 5248 5247 5246 5245 5243 5243 5247 5252 5252 5255 5260 5265 5274 5287 5300 5302 5300 5300 5302 5301 5299 5294 5290
5278 5269 5262 5257 5253 5249 5247 5248 5247 5244 5244 5244 5245 5245 5245 5245 5247 5249 5250 5250 5253 5256 5259 5261 5262 5267 5271 5278 5287 5297 5303 5311 5312 5311 5311 5306 5300 5292
5267 5260 5254 5248 5245 5244 5244 5242 5241 5240 5241 5241 5241 5242 5243 5244 5246 5247 5249 5253 5258 5266 5270 5271 5273 5275 5281 5288 5292 5299 5305 5310 5320 5323 5323 5319 5311 5300
5259 5252 5246 5242 5241 5240 5240 5239 5239 5239 5237 5237 5237 5238 5240 5241 5244 5246 5247 5251 5255 5263 5274 5281 5284 5287 5292 5296 5302 5308 5315 5323 5329 5335 5336 5333 5326 5315
5248 5241 5238 5237 5237 5237 5237 5237 5237 5236 5235 5233 5233 5233 5235 5237 5240 5244 5246 5250 5255 5263 5271 5279 5286 5295 5302 5311 5312 5313 5322 5331 5339 5344 5347 5347 5344 5335
5237 5234 5234 5233 5234 5234 5233 5233 5234 5233 5232 5231 5231 5231 5232 5234 5237 5241 5246 5250 5257 5264 5272 5278 5284 5289 5296 5305 5316 5319 5323 5334 5344 5350 5353 5356 5357 5355
5233 5232 5232 5232 5232 5232 5232 5231 5231 5231 5230 5229 5229 5230 5231 5233 5236 5240 5245 5249 5257 5265 5273 5280 5285 5290 5295 5301 5308 5316 5324 5332 5343 5351 5357 5362 5366 5368
5232 5232 5232 5232 5232 5231 5231 5230 5229 5229 5229 5228 5229 5230 5232 5233 5236 5240 5245 5252 5258 5264 5271 5278 5285 5292 5298 5305 5311 5317 5323 5330 5336 5346 5356 5364 5368 5372
5232 5232 5233 5233 5232 5232 5231 5231 5230 5231 5231 5231 5231 5232 5234 5235 5238 5242 5247 5252 5258 5264 5269 5277 5285 5293 5298 5303 5308 5313 5319 5327 5334 5341 5348 5355 5360 5366
5233 5234 5235 5235 5235 5234 5233 5233 5232 5233 5234 5234 5235 5236 5237 5239 5242 5246 5250 5254 5259 5264 5269 5276 5284 5290 5295 5300 5305 5310 5316 5322 5329 5337 5342 5346 5353 5358